www.pogodaiklimat.ru

Погода и климат >> Архив погоды >> Китай >> Tianjin


АРХИВ ПОГОДЫ в Tianjin

Время (UTC), дата Ветер
(напр.,м/с)
 
Видим.   Явления Облачность Т
(С)
Тd
(С)
f
(%)
Тe
(С)
Тes
(С)
Комфортность P
(гПа)
Po
(гПа)
Тmin
(С)
Tmax
(С)
R
(мм)
R24
(мм)
S
(см)
18 12.07 С 1 н/о дымка ?/? +26.8 +26.3 97 +41 +41 опасность
перегрева
1004.5 1004.0 +32.7
21 12.07 С 2 2900 м дымка н/о +25.4 +25.4 100 +37 +37 очень
душно
1003.9 1004.0
00 13.07 ЮВ 4 3900 м дымка 10/10
[]
+26.9 +26.7 99 +42 +42 опасность
перегрева
1004.9 1005.0 0.0
03 13.07 Ю 3 н/о слабый ливневой дождь 10/10 1500 м
[]
+25.7 +25.7 100 +38 +38 очень
душно
1005.3 1005.0
06 13.07 З 2 12 км слабый ливневой дождь 10/10 1500 м
[]
+26.1 +25.9 99 +39 +39 очень
душно
1004.1 1003.6 +25.2 2
09 13.07 С 2 15 км {ливн. осадки} 10/10 1000 м
[]
+27.3 +25.7 91 +40 +40 очень
душно
1003.2 1003.0
12 13.07 В 2 7000 м слабый ливневой дождь 10/10 1500 м
[]
+25.5 +25.3 99 +37 +37 очень
душно
1003.3 1003.0 1
18 13.07 ЮВ 1 2700 м дымка ?/? +24.6 +24.6 100 +34 +34 очень
душно
1003.2 1003.0 +27.3 0.1
21 13.07 Ю 1 3000 м дымка н/о +24.5 +24.5 100 +34 +34 очень
душно
1002.8 1003.0
00 14.07 С 1 н/о дымка 10/10 1500 м
[]
+25.5 +25.3 99 +37 +37 очень
душно
1004.3 1004.0 0.1
03 14.07 ЮВ 3 13 км 10/10 1500 м
[]
+26.5 +25.1 92 +38 +38 очень
душно
1004.7 1005.0
06 14.07 ЮВ 2 24 км 9/9
[]
+28.7 +26.1 86 +43 +45 опасность
перегрева
1003.6 1003.1 +24.1
09 14.07 Ю 3 20 км 9/9
[]
+30.0 +26.4 81 +46 +46 опасность
перегрева
1003.0 1003.0
12 14.07 Ю 1 16 км 1/1
[]
+27.9 +26.5 92 +43 +43 опасность
перегрева
1003.8 1003.3
18 14.07 Ю 2 2700 м ?/? +26.1 +26.1 100 +39 +39 очень
душно
1004.9 1004.4 +30.1 4
21 14.07 С 1 2400 м дымка ?/? +25.8 +25.8 100 +38 +38 очень
душно
1005.0 1005.0
00 15.07 ЮЗ 1 4200 м дымка 10/10
[]
+27.3 +27.0 98 +43 +43 опасность
перегрева
1005.3 1005.0 1
03 15.07 Ю 4 8000 м 9/9
[]
+29.5 +26.9 86 +46 +48 опасность
перегрева
1005.9 1006.0
06 15.07 Ю 4 17 км 9/9
[]
+32.4 +26.5 71 +49 +50 опасность
перегрева
1004.6 1005.0 +25.7
09 15.07 Ю 3 17 км 3/3 1000 м
[]
+33.2 +26.5 68 +50 +53 опасность
перегрева
1003.3 1003.0
12 15.07 Ю 3 16 км 3/3
[]
+30.6 +27.6 84 +49 +49 опасность
перегрева
1003.7 1004.0
18 15.07 Ю 1 4300 м дымка ?/? +28.3 +28.0 98 +47 +47 опасность
перегрева
1003.4 1002.9 +33.2
21 15.07 СЗ 3 3400 м дымка ?/? +28.4 +27.5 95 +46 +46 опасность
перегрева
1004.1 1004.0
00 16.07 Ю 4 4900 м дымка 9/9
[]
+30.7 +28.5 88 +52 +52 опасность
перегрева
1004.1 1003.6
03 16.07 Ю 5 23 км 8/8 1000 м
[]
+34.6 +28.3 70 +56 +58 опасность
перегрева
1004.2 1004.0
06 16.07 Ю 7 29 км 8/8 1000 м
[]
+35.7 +27.8 64 +56 +57 опасность
перегрева
1002.1 1002.0 +27.4
09 16.07 Ю 4 30 км 3/3 1000 м
[]
+35.1 +25.3 57 +49 +51 опасность
перегрева
1002.4 1002.0
12 16.07 С 3 30 км 8/8 1000 м
[]
+28.8 +24.6 78 +41 +41 опасность
перегрева
1004.4 1004.0
18 16.07 Ю 1 16 км ?/? +27.7 +25.9 90 +41 +41 опасность
перегрева
1003.8 1004.0 +36.0
21 16.07 Ю 2 3900 м дымка н/о +27.4 +27.1 98 +43 +43 опасность
перегрева
1003.9 1004.0
00 17.07 Ю 3 9000 м 10/10
[]
+29.3 +26.7 86 +46 +46 опасность
перегрева
1004.3 1003.8
03 17.07 Ю 2 3900 м слабый ливневой дождь 10/10 1000 м
[]
+28.9 +28.2 96 +48 +48 опасность
перегрева
1004.3 1004.0
06 17.07 Ю 2 8000 м в посл. час ливневой дождь 10/10 1000 м
[]
+30.5 +28.3 88 +51 +51 опасность
перегрева
1002.9 1002.4 +27.3 3
09 17.07 В 4 23 км 9/9
[]
+30.4 +26.1 78 +46 +46 опасность
перегрева
1001.6 1002.0
12 17.07 В 3 2600 м слабый ливневой дождь 10/10 1000 м
[]
+25.0 +24.8 99 +35 +35 очень
душно
1003.7 1004.0 3
18 17.07 С 1 9000 м ?/? +24.9 +24.6 98 +35 +35 очень
душно
1003.3 1002.8 +30.9 13
21 17.07 СВ 1 н/о дымка ?/? +25.5 +25.5 100 +37 +37 очень
душно
1003.9 1004.0
00 18.07 Ю 3 6000 м дымка ясно +29.2 +27.4 90 +47 +53 опасность
перегрева
1004.8 1004.3 13
03 18.07 Ю 3 10 км 9/9
[]
+32.3 +27.7 77 +52 +54 опасность
перегрева
1005.0 1005.0
06 18.07 Ю 4 14 км 9/9 1000 м
[]
+33.8 +28.7 75 +57 +58 опасность
перегрева
1003.8 1004.0 +24.2
09 18.07 Ю 4 23 км 5/5 1000 м
[]
+34.4 +28.4 71 +56 +58 опасность
перегрева
1002.9 1003.0
12 18.07 Ю 3 26 км 8/8
[]
+31.8 +27.5 78 +51 +51 опасность
перегрева
1004.0 1003.5
18 18.07 СВ 1 7000 м ?/? +29.6 +27.6 89 +48 +48 опасность
перегрева
1005.1 1005.0 +34.9
21 18.07 ЮВ 2 3700 м дымка н/о +29.1 +28.6 97 +50 +50 опасность
перегрева
1005.1 1005.0
00 19.07 Ю 5 7000 м дымка 9/9
[]
+31.2 +28.0 83 +51 +52 опасность
перегрева
1005.7 1006.0
03 19.07 Ю 4 14 км 9/9 1000 м
[]
+33.1 +27.8 74 +53 +55 опасность
перегрева
1005.1 1005.0
06 19.07 Ю 2 19 км 10/10 1000 м
[]
+34.1 +28.6 73 +56 +56 опасность
перегрева
1003.6 1004.0 +28.7
09 19.07 Ю 3 25 км 10/10 1500 м
[]
+33.3 +28.3 75 +55 +55 опасность
перегрева
1002.9 1003.0

 

Местоположение метеостанции Tianjin (Китай): широта 39.10 долгота 117.16 высота над уровнем моря 5 м.

В архиве по умолчанию представлена погода в Tianjin за последнюю неделю. Архивные данные за месяц целиком и за предыдущие месяцы, начиная с января 2011 года, Вы можете получить, выбрав интересующий диапазон дат из раскрывающегося списка и нажав кнопку "Ввод!".


*Определитесь, кто Вы:
робот инопланетянин человек

Внимание! Время в таблицах - всемирное. Для получения местного времени необходимо прибавить поправку, которая в Tianjin равна 8 ч.

Смотрите также архив погоды в соседних городах и на ближайших метеорологических станциях:

Погода в Tangshan (Китай) (106 км)
Погода в Beijing (Китай) (119 км)
Погода в Potou (Китай) (125 км)
Погода в Baoding (Китай) (141 км)
Погода в Leting (Китай) (154 км)
Погода в Huimin (Китай) (181 км)
Погода в Huailai (Китай) (203 км)
Погода в Lingxian (Китай) (204 км)
Погода в Qinglong (Китай) (211 км)
Погода в Chengde (Китай) (220 км)

Пояснения к столбцам:

Ветер - указаны скорость ветра в м/с - средняя за 10 мин, порывы в срок и между сроками (в фигурных скобках) и направление, откуда дует ветер: С - северный, СВ - северо-восточный, В - восточный, ЮВ - юго-восточный, Ю - южный, ЮЗ - юго-западный, З - западный, СЗ - северо-западный.
Видимость - горизонтальная дальность видимости в метрах или километрах. При видимости от 1 до 10 км при отсутствии осадков обычно наблюдается дымка, при ухудшении видимости до 1 км и менее - туман. В сухую погоду видимость может ухудшаться дымом, пылью или мглою.
Явления - указаны атмосферные явления, наблюдавшиеся в срок или в последний час перед сроком; фигурными скобками обозначены явления, наблюдавшиеся между сроками (за 1-3 часа до срока); квадратными скобками обозначены град или гололедные отложения с указанием их диаметра в мм.
Облачность - указаны через наклонную черту общая и нижняя облачность в баллах и высота нижней границы облаков в метрах; квадратными скобками обозначены формы облаков: Ci - перистые, Cs - перисто-слоистые, Cc - перисто-кучевые, Ac - высококучевые, As - высокослоистые, Sc - слоисто-кучевые, Ns - слоисто-дождевые, Cu - кучевые, Cb - кучево-дождевые. Подробнее классификацию облаков см. в Атласе облаков (PDF).
T - Температура воздуха - температура, измеренная на высоте 2 м над землей.
Td - Температура точки росы - температура, при понижении до которой содержащийся в воздухе водяной пар достигнет насыщения.
f - Относительная влажность воздуха - влажноcть воздуха, измеренная на высоте 2 м над землей.
Te - Эффективная температура - температура, которую ощущает одетый по сезону человек в тени. Характеристика душности погоды. При расчете учитывается влияние влажности воздуха и скорости ветра на теплоощущения человека.
Tes - Эффективная температура на солнце - температура, которую ощущает человек, с поправкой на солнечный нагрев. Характеристика знойности погоды. Зависит от высоты солнца над горизонтом, облачности и скорости ветра. Ночью, в пасмурную погоду, а также при ветре 12 м/с и более поправка равна нулю.
P - Атмосферное давление - приведенное к уровню моря атмосферное давление.
Po - Атмосферное давление - измеренное на уровне метеостанции атмосферное давление.
Tmin - Минимальная температура - минимум температуры воздуха на высоте 2 м над землей.
Tmax - Максимальная температура - максимум температуры воздуха на высоте 2 м над землей.
R - Количество осадков - Количество выпавших осадков за период времени, мм. При наведении курсора мыши на число - период времени, за который выпало указанное количество осадков.
R24 - Количество осадков - Количество выпавших осадков за 24 часа, мм.
S - Снежный покров - Высота снежного покрова, см. При наведении курсора мыши на число - состояние снежного покрова и степень покрытия местности в баллах.